Regional Weather Roundup
Issued by NWS Jackson, KY

Home | Current Version | Previous Version | Graphics & Text | Print | Product List | Glossary On
Versions: 1 2 3 4 5 6 7 8 9 10 11 12 13 14 15 16 17 18 19 20 21 22 23 24 25 26 27 28 29 30 31 32 33 34 35 36 37 38 39 40 41 42 43 44 45 46 47 48 49 50
000
ASUS43 KJKL 040310
RWRJKL

EAST KENTUCKY HOURLY WEATHER ROUNDUP
NATIONAL WEATHER SERVICE JACKSON KY
1100 PM EDT FRI JUL 03 2015

NOTE: "FAIR" INDICATES FEW OR NO CLOUDS BELOW 12,000 FEET WITH
NO SIGNIFICANT WEATHER AND/OR OBSTRUCTIONS TO VISIBILITY.

* THESE REPORTS ARE NOT UNDER NWS QUALITY CONTROL AND MAY NOT
  REPORT WEATHER SUCH AS PRECIPITATION AND FOG.

KYZ079-080-083-085-087-088-110-112-115-119-120-040400
...EASTERN KENTUCKY...

CITY           SKY/WX    TMP DP  RH WIND       PRES   REMARKS
JACKSON        LGT RAIN  67  65  93 CALM      29.92F
LONDON         LGT RAIN  69  65  86 SW9       29.94R
SOMERSET*      CLOUDY    66  66 100 SW3       29.94R
MONTICELLO*    CLOUDY    69  69 100 CALM      29.96R
MIDDLESBORO*   CLOUDY    71  68  92 CALM      29.95R
HARLAN APT*      N/A     66  66 100 CALM      29.96R
HAZARD APT*    LGT RAIN  68  68 100 CALM      29.92F
BLACK MTN*       N/A     59  59 100 SW2         N/A
PIKEVILLE APT* LGT RAIN  68  68 100 W6        29.94R
BIG SANDY*     LGT RAIN  69  68  97 SW5       29.92R
MOREHEAD APT*  LGT RAIN  68  66  94 CALM      29.92R VSB<1/4
$$

KYZ035-036-041-042-044-050-067-078-099-040400
...CENTRAL KENTUCKY...

CITY           SKY/WX    TMP DP  RH WIND       PRES   REMARKS
MT STERLING*   CLOUDY    68  68 100 W3        29.92R
FLEMING/MASON* CLOUDY    66  66 100 CALM      29.91R FOG
DANVILLE*      CLOUDY    68  66  94 CALM      29.93R
RICHMOND*      CLOUDY    68  66  94 SW6       29.90F
LEXINGTON      CLOUDY    68  67  96 SW3       29.90R
FRANKFORT      CLOUDY    68  66  93 CALM      29.89R
$$

KYZ091>093-OHZ055-061-077-WVZ005-015-034-035-042-040400
...SOUTHERN OHIO/WEST VIRGINIA...

CITY           SKY/WX    TMP DP  RH WIND       PRES   REMARKS
COVINGTON      CLOUDY    71  62  73 NE7       29.90R
COLUMBUS       MOCLDY    66  64  93 NW3       29.89R
DAYTON         MOCLDY    69  65  86 E3        29.92R
WILMINGTON     CLOUDY    65  62  90 CALM      29.91R
HUNTINGTON     CLOUDY    68  68 100 SW3       29.89R FOG
CHARLESTON     CLOUDY    71  69  93 CALM      29.88R FOG
PINEVILLE*     RAIN      68  68 100 MISG      29.99S
BECKLEY        CLOUDY    67  63  87 S7        29.97R
BLUEFIELD      LGT RAIN  67  63  87 CALM      30.00R
$$

VAZ002-007-008-TNZ017-027-036-066-071-040400
...SOUTHWEST VIRGINIA/EAST TENNESSEE...

CITY           SKY/WX    TMP DP  RH WIND       PRES   REMARKS
WISE*          RAIN      64  64 100 W7        30.01R
JONESVILLE*      N/A    N/A N/A N/A MISG        N/A
ABINGDON*      HVY RAIN  70  69  98 CALM      29.98R
BRISTOL        CLOUDY    71  67  87 SW12      29.96S
KNOXVILLE      CLOUDY    72  66  81 SW12      29.96R
OAK RIDGE      MOCLDY    73  66  78 SW3       29.97R
CROSSVILLE     CLOUDY    69  64  84 SW3       30.01R
NASHVILLE      CLOUDY    74  69  85 SW3       29.94R
$$

...KEY TO REMARKS...
VSB - VISIBILITY IN MILES
WCI - WIND CHILL INDEX
HX  - HEAT INDEX

$$


USA.gov is the U.S. government's official web portal to all federal, state and local government web resources and services.